Weather History for Bedford, MA

Change the Weather History Date:

Sunday, April 7, 2013

  Actual Average Record
Temperature  
Mean Temperature 39 °F -  
Max Temperature 57 °F 53 °F 85 °F (1991)
Min Temperature 23 °F 32 °F 14 °F (1982)
Degree Days  
Heating Degree Days 26    
Moisture  
Dew Point 25 °F    
Average Humidity 56    
Maximum Humidity 81    
Minimum Humidity 28    
Precipitation  
Precipitation 0.00 in - - ()
Sea Level Pressure  
Sea Level Pressure 30.20 in    
Wind  
Wind Speed 6 mph (SSW)    
Max Wind Speed 23 mph    
Max Gust Speed 36 mph    
Visibility 10 miles    
Events      
Averages and records for this station are not official NWS values.
T = Trace of Precipitation, MM = Missing Value Source: NWS Daily Summary

Daily Weather History Graph

Daily Weather History Graph

Search for Another Location

Airport:

Trip Planner

Search our weather history database for the weather conditions in past years. The results will help you decide how hot, cold, wet, or windy it might be!

Date:

Astronomy

Apr. 07, 2013 Rise Set
Actual Time 6:16 AM EDT 7:18 PM EDT
Civil Twilight 5:48 AM EDT 7:46 PM EDT
Nautical Twilight 5:14 AM EDT 8:21 PM EDT
Astronomical Twilight 4:38 AM EDT 8:57 PM EDT
Moon 4:36 AM EDT (4/7) 4:44 PM EDT (4/7)
Length of Visible Light 13h 58m
Length of Day
13h 01m
Waning Crescent, 8% of the Moon is Illuminated
Apr 7
Waning Crescent
Apr 10
New
Apr 18
First Quarter
Apr 25
Full
May 2
Last Quarter

Hourly Weather History & Observations

Time (EDT) Temp. Windchill Dew Point Humidity Pressure Visibility Wind Dir Wind Speed Gust Speed Precip Events Conditions
12:56 AM 27.0 °F - 15.1 °F 61% 30.37 in 10.0 mi Calm Calm - N/A   Clear
1:56 AM 26.1 °F - 15.1 °F 63% 30.35 in 10.0 mi Calm Calm - N/A   Clear
2:56 AM 26.1 °F - 14.0 °F 60% 30.33 in 10.0 mi Calm Calm - N/A   Clear
3:56 AM 24.1 °F - 17.1 °F 75% 30.32 in 10.0 mi Calm Calm - N/A   Clear
4:56 AM 25.0 °F - 18.0 °F 75% 30.32 in 10.0 mi Calm Calm - N/A   Clear
5:56 AM 23.0 °F - 18.0 °F 81% 30.33 in 10.0 mi Calm Calm - N/A   Clear
6:56 AM 25.0 °F - 19.0 °F 78% 30.34 in 10.0 mi Calm Calm - N/A   Clear
7:56 AM 32.0 °F - 24.1 °F 73% 30.36 in 10.0 mi Calm Calm - N/A   Clear
8:56 AM 39.0 °F 34.0 °F 21.9 °F 50% 30.34 in 10.0 mi SSW 6.9 mph - N/A   Mostly Cloudy
9:56 AM 45.0 °F 38.5 °F 21.0 °F 39% 30.31 in 10.0 mi SSW 13.8 mph - N/A   Clear
10:56 AM 46.9 °F - 18.0 °F 32% 30.28 in 10.0 mi South 16.1 mph - N/A   Mostly Cloudy
11:56 AM 48.9 °F - 21.9 °F 35% 30.24 in 10.0 mi South 12.7 mph 21.9 mph N/A   Overcast
12:56 PM 53.1 °F - 21.0 °F 29% 30.19 in 10.0 mi South 18.4 mph 26.5 mph N/A   Mostly Cloudy
1:56 PM 55.0 °F - 21.9 °F 28% 30.14 in 10.0 mi SSW 23.0 mph 35.7 mph N/A   Mostly Cloudy
2:56 PM 55.0 °F - 26.1 °F 33% 30.11 in 10.0 mi SSW 13.8 mph 35.7 mph N/A   Clear
3:56 PM 54.0 °F - 28.9 °F 38% 30.09 in 10.0 mi SSW 19.6 mph 33.4 mph N/A   Clear
4:56 PM 53.1 °F - 30.9 °F 43% 30.07 in 10.0 mi SSW 20.7 mph 31.1 mph N/A   Clear
5:56 PM 51.1 °F - 30.9 °F 46% 30.06 in 10.0 mi South 18.4 mph 24.2 mph N/A   Clear
6:56 PM 48.9 °F - 32.0 °F 52% 30.07 in 10.0 mi SSW 19.6 mph 26.5 mph N/A   Clear
7:56 PM 48.0 °F - 34.0 °F 58% 30.07 in 10.0 mi SSW 12.7 mph 27.6 mph N/A   Overcast
8:56 PM 46.9 °F - 36.0 °F 66% 30.07 in 10.0 mi South 12.7 mph 21.9 mph N/A   Scattered Clouds
9:56 PM 45.0 °F 39.3 °F 36.0 °F 71% 30.06 in 10.0 mi SSW 11.5 mph 19.6 mph N/A   Clear
10:56 PM 45.0 °F 40.1 °F 37.0 °F 74% 30.04 in 10.0 mi SSW 9.2 mph - N/A   Clear
11:56 PM 45.0 °F 39.7 °F 37.9 °F 76% 30.03 in 10.0 mi SSW 10.4 mph - N/A   Clear